#timestamp,LO_Frequency,Hit,StdDev 
1626894015.5,286046998.3,N
1626894035.4,286047000.3,N
1626894055.2,286046998.6,N
1626894075.0,286046998.6,N
1626894075.9,286046998.6,N
1626894095.8,286046999.1,N
1626894115.6,286046996.9,N
1626894135.5,286046999.0,N
1626894155.3,286046998.5,N
1626894175.1,286047000.4,N
1626894195.9,286047000.4,N
1626894215.7,286046998.2,N
1626894235.6,286047000.8,N
1626894255.4,286047000.9,N
1626894275.2,286047000.0,N
1626894295.1,286047002.4,N
1626894296.0,286047002.4,N
1626894315.8,286047004.2,N
1626894335.6,286047003.6,N
1626894355.5,286047003.9,N
1626894375.3,286047003.8,N
1626894395.2,286047003.4,N
1626894415.9,286047003.3,N
1626894435.7,286047006.0,N
1626894455.6,286047004.5,N
1626894475.4,286047005.0,N
1626894495.3,286047006.4,N
1626894515.1,286047004.6,N
1626894516.0,286047004.6,N
1626894535.8,286047004.7,N
1626894555.7,286047005.9,N
1626894575.5,286047003.6,N
1626894595.3,286047004.0,N
1626894615.2,286047002.2,N
1626894635.0,286047002.5,N
1626894635.9,286047002.5,N
1626894655.8,286047002.0,N
1626894675.6,286046999.7,N
1626894695.4,286047002.1,N
1626894715.3,286047002.1,N
1626894735.1,286047002.7,N
1626894755.8,286047002.4,N
1626894775.7,286047002.4,N
1626894795.5,286046999.8,N
1626894815.4,286047000.4,N
1626894835.2,286046998.2,N
1626894855.0,286046998.6,N
1626894855.9,286046998.6,N
1626894875.8,286047001.0,N
1626894895.6,286046998.6,N
1626894915.4,286046998.2,N
1626894935.3,286047002.8,N
1626894955.1,286047000.3,N
1626894975.9,286046999.8,N
1626894995.7,286047001.1,N
1626895015.5,286047000.9,N
1626895035.4,286047000.5,N
1626895055.2,286047000.5,N
1626895075.1,286047001.0,N
1626895076.0,286047001.0,N
1626895095.8,286046998.6,N
1626895115.6,286046998.5,N
1626895135.5,286046998.3,N
1626895155.3,286046999.0,N
1626895175.1,286046998.5,N
1626895195.9,286046998.1,N
1626895215.7,286047000.4,N
1626895235.6,286047002.4,N
1626895255.4,286047002.5,N
1626895275.2,286047000.2,N
1626895295.1,286046999.9,N
1626895296.0,286046999.9,N
1626895315.8,286047002.3,N
1626895335.7,286046999.8,N
1626895355.5,286047000.3,N
1626895375.3,286046999.7,N
1626895395.2,286046999.8,N
1626895415.0,286047001.5,N
1626895415.9,286047001.5,N
1626895435.7,286047003.8,N
1626895455.6,286047003.0,N
1626895475.4,286047004.4,N
1626895495.3,286047003.8,N
1626895515.1,286047003.5,N
1626895535.8,286047001.7,N
1626895555.7,286047002.3,N
1626895575.5,286047002.1,N
1626895595.4,286047001.3,N
1626895615.2,286047003.9,N
1626895635.0,286047003.2,N
1626895635.9,286047003.2,N
1626895655.8,286047003.4,N
1626895675.6,286047003.6,N
1626895695.5,286047003.3,N
1626895715.3,286047003.5,N
1626895735.1,286047003.1,N
1626895755.9,286047003.3,N
1626895775.7,286047003.1,N
1626895795.5,286047004.3,N
1626895815.4,286047001.8,N
1626895835.2,286047001.4,N
1626895855.1,286047004.1,N
1626895856.0,286047004.1,N
1626895875.8,286047004.2,Y
1626895895.6,286047000.2,P
1626895915.5,286046999.9,N
1626895935.3,286046999.8,N
1626895955.2,286047000.5,N
1626895975.9,286047011.9,Y
1626895995.7,286047000.2,P
1626896015.6,286047000.0,N
1626896035.4,286047000.5,N
1626896055.3,286047000.3,N
1626896075.1,286046998.5,Y
1626896095.9,286047001.2,P
1626896115.7,286047000.6,N
1626896135.5,286046999.9,N
1626896155.4,286047000.2,N
1626896175.2,286047000.4,N
1626896195.0,286047000.2,N
1626896195.9,286047000.2,N
1626896215.8,286047000.8,N
1626896235.6,286047000.9,N
1626896255.5,286047000.0,N
1626896275.3,286047000.0,N
1626896295.1,286047000.5,N
1626896315.9,286046999.9,N
1626896335.7,286047000.4,N
1626896355.5,286047000.1,N
1626896375.4,286046999.7,N
1626896395.2,286047000.6,N
1626896415.1,286047002.6,Y
1626896416.0,286047002.6,P
1626896435.8,286047000.4,N
1626896455.7,286047000.5,N
1626896475.5,286047000.1,N
1626896495.3,286047000.7,N
1626896515.2,286047000.4,N
1626896535.0,286047001.9,N
1626896535.9,286047001.9,N
1626896555.8,286047000.1,N
1626896575.6,286047002.4,N
1626896595.4,286047002.5,N
1626896615.3,286047001.3,N
1626896635.1,286047002.7,N
1626896655.9,286046999.7,N
1626896675.7,286047000.9,N
1626896695.5,286047000.4,N
1626896715.4,286047000.8,N
1626896735.2,286046998.6,N
1626896755.0,286046998.6,N
1626896755.9,286046998.6,N
1626896775.8,286046999.5,N
1626896795.6,286046998.5,N
1626896815.5,286046998.1,N
1626896835.3,286046998.6,N
1626896855.1,286046998.2,N
1626896875.9,286047001.1,N
1626896895.7,286047002.4,N
1626896915.5,286047001.7,N
1626896935.4,286047003.8,N
1626896955.2,286047003.3,N
1626896975.1,286047004.9,Y
1626896976.0,286047004.9,P
1626896995.8,286047004.9,N
1626897015.6,286047005.3,N
1626897035.5,286047007.2,Y
1626897055.3,286047002.0,P
1626897075.2,286047001.6,N
1626897095.9,286047001.9,N
1626897115.7,286047001.4,N
1626897135.6,286047002.0,N
1626897155.4,286047001.4,N
1626897175.2,286047001.3,N
1626897195.1,286047001.8,N
1626897196.0,286047001.8,N
1626897215.8,286047004.0,Y
1626897235.7,286047000.0,P
1626897255.5,286047000.6,N
1626897275.3,286047001.0,N
1626897295.2,286047002.4,Y
1626897315.0,286047001.1,P
1626897315.9,286047001.1,P
1626897335.8,286047001.0,P
1626897355.6,286046998.1,Y
1626897375.4,286046996.7,P
1626897395.3,286046999.4,N
1626897415.1,286046996.5,N
1626897435.8,286046997.3,N
1626897455.7,286046997.5,N
1626897475.5,286046994.9,Y
1626897495.4,286046996.6,P
1626897515.2,286046997.2,P
1626897535.0,286046995.0,P
1626897535.9,286046995.0,Y
1626897555.8,286046999.5,P
1626897575.6,286046999.0,N
1626897595.4,286046996.5,N
